Regional Weather Roundup
Issued by NWS

Home | Current Version | Previous Version | Graphics & Text | Print | Product List | Glossary On
Versions: 1 2 3 4 5 6 7 8 9 10 11 12 13 14 15 16 17 18 19 20 21 22 23 24 25 26 27 28
000
ASUS45 KSLC 311810
RWRUT

UTAH REGIONAL WEATHER ROUNDUP
NATIONAL WEATHER SERVICE SALT LAKE CITY UT
1200 PM MDT TUE MAY 31 2016

UTZ001>011-023>025-311900-

NORTHERN UTAH

CITY           SKY/WX    TMP DP  RH WIND       PRES   REMARKS
BRIGHAM CITY     N/A     67  34  29 N3        30.10S
DUGWAY         MOSUNNY   73  26  17 SW1       30.10
HILL AFB       SUNNY     66  38  35 VRB5      30.11S
LOGAN          SUNNY     62  38  40 VRB3      30.11F
OGDEN          SUNNY     69  34  27 E3        30.09S
PROVO AIRPORT  MOSUNNY   66  43  42 W7        30.10F
SALT LAKE CITY MOSUNNY   71  30  21 NW7       30.09S
VERNAL         SUNNY     69  34  27 VRB5      30.09S
WENDOVER       SUNNY     72  28  20 E9        30.10F
HEBER CITY     SUNNY     68  27  21 NW3       30.10S
WEST JORDAN    SUNNY     66  34  30 N8        30.11S

$$

UTZ012>022-026-027-311900-

SOUTHERN/CENTRAL UTAH

CITY           SKY/WX    TMP DP  RH WIND       PRES   REMARKS
BLANDING       SUNNY     76  28  17 W3        30.12S
BRYCE CANYON   SUNNY     66  24  20 VRB5      30.19S
CEDAR CITY     SUNNY     74  30  19 NE12      30.09S
DELTA          SUNNY     70  28  21 NW6       30.09F
HANKSVILLE     SUNNY     79  28  15 NW5       30.01F
MILFORD        SUNNY     74  29  19 N10       30.09F
MOAB/CYNLANDS  SUNNY     79  31  17 VRB7      29.98F
PRICE          SUNNY     73  19  13 CALM      30.07F
ST GEORGE      CLEAR     82  36  18 W5        29.94F

$$

REGIONAL REPORTS     COLORADO/ARIZONA

CITY           SKY/WX    TMP DP  RH WIND       PRES   REMARKS
CRAIG, CO      SUNNY     64  39  39 VRB6      30.13F
GRAND JUNCTION SUNNY     74  34  23 MISG      30.01F
RIFLE          SUNNY     73  36  25 N5        30.05F
MONTROSE       SUNNY     71  34  25 VRB7      30.06F
CORTEZ         SUNNY     78  23  13 CALM      30.04F
PAGE, AZ       SUNNY     80  32  17 VRB6      29.98F
GRAND CANYON   MOSUNNY   73  29  19 VRB3      30.11F
KINGMAN        SUNNY     89  29  11 NE8       29.93S
FLAGSTAFF      MOSUNNY   68  22  17 NE8       30.13S

$$

REGIONAL REPORTS    NEVADA/IDAHO/WYOMING

CITY           SKY/WX    TMP DP  RH WIND       PRES   REMARKS
LAS VEGAS, NV  MOSUNNY   92  32  12 NE8       29.84F
ELY            SUNNY     66  29  24 N9G17     30.18S
ELKO           SUNNY     70  32  24 N6        30.15S
POCATELLO, ID  SUNNY     68  28  22 NE14G22   30.14F
BURLEY         SUNNY     66  34  30 E9        30.12F
EVANSTON, WY   MOSUNNY   60  36  40 SE3       30.18S
ROCK SPRINGS   SUNNY     59  35  40 N7        30.17F
KEMMERER         N/A     59  28  31 W8        30.20S

$$




USA.gov is the U.S. government's official web portal to all federal, state and local government web resources and services.